GFSFLT2_850_thetae_111.txt.gz
Theta_e
350 338 338 339 338 336 335 334 333 332 332 332 333 334 336 337 336 335 334 332 331 330 331 332 333 333 334 335 333 331 333 338
350 342 338 339 339 337 337 335 334 334 333 333 333 334 336 337 336 335 334 333 332 331 331 332 332 333 333 333 332 331 330 338
349 350 346 340 340 338 338 336 336 335 335 334 334 334 335 336 335 335 334 334 334 332 332 332 333 333 333 333 330 332 335 335
348 349 346 343 346 344 339 337 336 336 336 336 335 336 342 342 341 336 335 334 333 334 333 333 333 335 334 332 330 336 335 335
347 345 343 341 340 347 344 344 341 339 340 340 338 341 341 342 341 339 337 335 334 335 334 334 336 337 339 337 335 336 335 337
347 346 342 339 343 344 344 343 340 342 342 341 341 340 339 340 339 339 339 339 339 340 338 338 338 339 339 338 337 336 338 336
344 345 345 345 344 344 343 342 342 338 340 342 340 340 339 339 339 338 341 339 340 339 339 338 338 338 337 337 337 335 333 334
321 339 343 343 342 338 341 341 341 342 339 339 340 340 340 340 339 338 338 339 337 339 339 339 337 338 337 336 337 336 334 334
317 321 334 340 341 341 340 339 339 339 340 335 340 338 340 336 334 338 337 337 338 338 338 339 338 337 336 336 336 335 334 333
320 318 317 333 338 337 340 339 338 338 338 339 335 340 339 340 332 331 339 337 339 337 338 337 338 337 337 336 336 336 336 333
323 324 322 318 320 326 336 338 340 339 339 339 339 337 340 339 339 328 324 326 337 338 337 337 337 336 337 335 334 334 334 332
322 323 323 325 319 321 330 333 335 338 339 340 340 340 341 339 339 335 331 323 325 337 337 339 337 335 335 334 335 334 333 332
321 321 321 322 323 323 320 329 332 334 336 338 340 340 340 338 338 333 327 324 323 325 335 334 335 334 335 332 331 331 331 331
318 318 319 320 321 323 324 321 327 329 333 335 336 340 339 337 334 330 329 325 323 324 331 335 335 335 332 331 331 330 330 330
315 315 316 316 318 319 322 323 322 329 331 332 333 336 337 334 334 332 333 328 324 324 327 331 335 335 332 330 329 329 329 328
313 313 313 313 314 316 319 321 324 321 327 330 332 334 337 335 334 332 335 332 328 324 327 331 332 330 332 331 330 330 329 329
310 310 310 310 311 313 314 316 319 324 324 331 331 332 333 332 337 335 336 334 332 328 327 331 330 329 328 328 330 329 329 329
308 307 307 308 310 312 313 313 314 317 322 326 334 332 334 333 333 336 336 336 333 331 328 327 326 330 330 328 330 329 329 329
306 305 306 309 310 311 313 313 313 314 316 321 329 333 332 333 332 332 335 337 335 333 331 332 329 332 331 331 329 329 328 328
303 303 307 309 310 310 312 315 315 315 317 318 324 331 332 334 331 332 337 338 338 335 333 331 328 332 331 330 331 329 329 330

GFSFLT2_850_thetae_114.txt.gz
Theta_e
350 347 340 337 338 336 335 333 332 331 332 333 333 334 334 335 336 336 336 335 334 333 331 331 332 332 333 335 335 331 329 336
350 346 341 338 338 337 335 334 333 332 332 331 332 333 334 335 336 336 336 335 333 332 331 331 332 333 333 333 334 331 328 331
349 348 340 338 339 338 336 335 334 333 332 332 332 333 334 335 336 336 336 334 333 333 332 331 332 333 332 332 333 330 327 327
348 349 346 340 340 339 337 336 335 334 334 333 333 333 334 335 335 335 335 334 333 334 333 332 332 333 333 332 332 330 329 332
346 346 348 349 345 343 340 338 337 336 335 334 334 334 337 339 339 338 336 335 334 333 333 333 333 333 336 336 336 332 331 336
348 346 343 347 348 348 347 341 339 337 336 335 334 336 337 339 339 339 339 336 335 335 334 334 334 334 335 337 337 336 336 334
341 344 345 342 347 343 347 344 344 340 342 337 335 338 339 337 339 339 339 337 334 334 336 337 336 336 336 337 336 336 336 335
321 335 342 343 343 343 344 345 343 343 342 345 341 337 339 341 340 340 341 342 339 334 336 337 338 337 336 336 335 336 336 335
317 319 325 339 338 340 341 343 342 342 342 339 342 342 339 341 340 338 337 340 341 338 336 340 337 336 336 336 335 335 336 335
321 318 317 330 339 340 338 339 342 340 342 340 335 334 337 340 340 339 339 337 339 339 336 335 337 337 335 335 335 335 334 334
323 324 322 317 332 339 339 338 339 340 339 340 339 335 339 339 334 334 334 339 338 338 339 334 336 337 335 334 334 333 332 333
323 323 323 323 320 321 330 334 335 337 339 339 339 339 337 341 339 335 336 334 337 340 340 336 338 336 335 335 333 333 332 331
320 320 321 321 320 321 324 321 327 333 337 339 340 340 340 339 339 339 337 335 328 335 339 339 335 336 335 335 333 332 332 332
316 316 317 318 319 321 321 322 320 324 332 336 335 338 340 340 340 341 339 337 332 328 338 337 334 334 336 335 333 332 331 328
314 314 314 314 314 315 317 320 321 318 322 329 334 337 337 339 339 340 339 339 336 331 331 333 329 333 334 332 330 329 330 329
312 312 311 311 312 312 313 315 317 319 323 324 328 333 331 334 335 339 338 338 337 333 333 328 329 331 333 333 330 327 329 330
310 309 309 309 310 311 312 313 314 314 317 320 323 328 332 331 334 335 339 336 336 335 334 333 329 328 329 329 333 331 330 330
307 306 306 307 308 310 311 311 313 315 316 315 318 320 329 334 333 331 330 333 334 337 335 335 332 328 331 331 329 331 329 329
305 304 304 304 305 307 309 311 312 313 314 315 316 317 320 329 332 331 331 332 330 333 335 335 334 332 333 331 330 328 329 329
303 302 303 305 305 307 308 309 310 311 313 313 314 317 317 321 329 331 333 334 331 331 333 334 335 333 333 331 328 330 328 328

GFSFLT2_850_thetae_117.txt.gz
Theta_e
347 347 342 339 337 336 334 332 330 329 332 334 336 337 336 334 334 334 334 333 333 332 331 330 330 330 330 333 335 334 331 330
347 348 346 342 338 336 335 333 332 330 331 333 334 335 335 334 334 334 335 334 333 333 331 331 330 331 331 331 333 334 331 330
337 343 345 344 337 337 336 334 333 331 332 331 331 332 333 333 333 334 335 335 334 333 332 331 331 331 331 331 331 332 331 329
342 341 342 340 338 338 336 335 334 332 332 331 331 331 332 332 333 334 335 335 333 333 333 332 331 331 331 331 331 332 332 329
345 344 344 340 339 338 337 336 335 334 332 332 332 331 332 332 333 334 334 335 334 333 333 332 331 331 331 332 333 334 332 330
340 343 346 345 340 340 340 338 336 336 334 333 333 332 332 332 333 333 334 333 334 334 334 333 332 332 332 332 334 336 334 331
334 337 344 345 345 344 344 344 341 338 336 335 334 334 332 331 333 336 335 334 335 333 333 333 333 333 333 333 334 337 336 335
336 339 343 343 341 342 345 345 343 342 340 337 335 334 334 333 335 336 339 335 336 338 335 332 333 334 335 334 335 336 336 336
318 319 326 338 339 338 339 339 341 341 341 341 338 338 335 336 337 335 335 336 337 339 339 336 334 335 336 335 334 335 335 335
319 319 318 319 332 336 327 331 337 338 338 338 342 340 338 337 340 341 339 341 340 338 340 336 335 337 334 334 334 335 334 334
321 320 319 319 318 329 335 337 333 337 339 339 340 342 339 338 340 341 340 339 338 337 340 338 336 335 335 336 334 334 333 333
318 317 317 317 317 318 323 335 337 333 335 337 337 338 339 338 336 338 341 340 339 338 338 339 338 336 334 336 334 333 333 333
319 318 317 317 318 315 314 317 322 334 331 335 335 336 337 339 338 336 335 336 338 340 338 337 339 337 334 337 335 335 333 332
315 315 315 315 315 317 318 317 316 319 323 328 333 335 337 336 338 339 336 335 334 336 339 336 337 337 334 335 334 334 334 333
313 312 312 311 311 311 312 313 316 318 316 322 326 331 332 336 335 334 335 336 334 333 333 334 334 337 337 334 332 333 331 331
311 310 310 310 310 310 310 311 311 312 312 316 317 322 326 332 335 335 334 334 333 330 329 334 332 329 335 334 330 327 328 325
309 308 308 308 308 309 310 310 311 311 312 313 312 316 318 327 330 331 332 334 333 331 330 330 332 330 329 333 332 331 326 324
306 306 305 305 306 307 308 309 310 311 312 312 313 313 313 317 322 325 332 332 330 331 329 330 331 334 332 332 330 331 329 329
303 304 305 305 305 306 307 308 308 309 310 312 313 314 314 314 314 317 322 332 332 330 330 329 328 331 335 332 331 332 329 329
302 303 303 304 304 305 306 307 307 308 309 309 311 313 314 315 315 315 316 323 332 331 329 329 330 331 333 333 331 331 330 329

GFSFLT2_850_thetae_123.txt.gz
Theta_e
338 343 345 343 341 339 337 334 332 331 332 333 334 337 339 339 337 333 331 330 329 329 330 330 329 328 329 331 332 331 331 332
331 339 341 345 340 339 338 335 333 331 330 330 332 334 338 338 337 334 332 331 331 330 330 330 329 329 329 330 331 332 332 329
331 337 338 342 345 340 338 337 334 332 332 331 333 335 336 337 336 335 333 333 332 331 331 331 330 329 330 330 330 331 332 331
329 333 335 342 344 345 341 338 335 332 332 333 335 336 336 336 335 335 334 333 333 333 332 331 330 330 330 330 330 330 330 331
319 319 324 335 343 344 344 341 336 334 333 332 333 335 335 335 336 335 334 334 334 334 334 333 331 330 330 330 331 330 330 331
317 318 323 337 344 344 344 342 337 335 334 333 332 332 334 333 333 334 335 334 334 334 334 333 332 331 331 330 330 331 331 331
316 317 323 330 337 341 344 341 338 336 335 334 333 332 332 332 331 331 333 335 335 334 334 334 333 332 332 331 330 331 331 332
316 320 325 333 336 337 338 338 338 337 336 335 334 333 332 332 331 331 331 332 334 335 335 335 334 333 333 332 331 331 331 332
317 326 332 334 335 335 337 336 334 331 337 337 335 335 334 334 333 333 332 332 333 335 336 336 336 335 334 333 332 331 332 332
325 336 337 338 335 336 338 336 336 335 334 337 338 337 338 337 336 336 335 334 333 333 335 336 336 337 337 334 333 332 331 332
329 328 330 331 328 329 333 334 332 330 330 331 333 333 332 327 336 333 333 335 335 333 333 335 336 336 337 335 334 334 333 332
320 320 319 318 318 318 318 319 324 329 328 326 328 328 329 331 330 328 327 324 334 335 334 334 334 334 334 335 334 335 334 334
318 317 317 316 315 314 313 313 314 315 317 319 321 324 323 327 332 329 326 325 329 331 331 333 334 333 332 333 333 333 334 334
312 312 312 312 312 312 312 312 312 312 312 312 313 315 317 321 324 329 328 326 326 324 333 328 332 330 332 333 331 332 334 334
308 307 307 308 309 309 309 310 310 310 310 311 311 311 311 312 314 317 321 324 330 330 330 329 331 332 332 329 329 332 332 332
304 303 303 304 305 305 306 306 306 306 307 307 308 309 310 310 311 311 314 318 322 327 330 331 330 327 329 332 325 326 325 324
301 302 302 303 303 303 303 304 304 304 304 305 305 305 307 309 310 311 311 312 313 316 322 329 332 328 326 330 329 324 324 324
300 301 301 302 303 303 304 304 305 305 305 306 306 306 306 307 309 310 310 311 311 312 313 320 326 332 331 330 330 327 326 324
301 301 302 302 302 302 303 304 305 305 306 306 307 307 308 308 309 310 310 310 311 312 312 313 316 327 333 329 328 328 325 326
301 301 301 300 302 303 302 302 303 303 304 305 305 306 307 308 309 311 312 312 312 312 312 312 313 314 328 331 330 329 328 327

GFSFLT2_850_thetae_126.txt.gz
Theta_e
334 341 345 345 343 339 338 337 335 332 332 334 336 336 338 339 337 334 330 327 327 328 328 329 329 328 328 328 331 332 332 330
332 337 339 341 343 341 340 339 335 333 332 334 336 337 337 339 338 335 332 330 328 328 328 329 329 328 328 328 329 332 331 330
328 333 337 339 341 342 339 339 338 334 333 334 336 337 337 337 339 337 334 332 331 330 329 329 330 329 328 328 328 330 331 332
325 329 330 328 337 342 344 340 339 336 334 335 336 337 338 336 338 338 336 334 333 332 332 331 331 330 328 328 328 329 329 330
320 321 320 325 328 339 343 344 342 338 335 335 337 338 338 337 337 338 338 336 334 334 334 333 331 330 329 328 328 329 329 329
317 318 318 318 326 336 343 343 343 341 337 335 337 337 337 338 337 338 338 337 336 334 335 334 333 332 331 329 328 329 329 329
315 316 316 317 328 339 339 339 338 340 338 336 335 335 335 336 338 338 338 338 337 336 335 335 335 334 332 331 330 329 329 329
315 315 315 318 334 332 334 336 337 338 338 336 336 336 335 335 336 337 337 334 333 333 334 335 335 335 334 333 331 330 329 329
316 315 315 318 341 343 333 332 335 336 335 336 335 335 335 334 335 334 333 332 332 331 332 333 333 335 335 335 333 332 331 330
327 330 331 333 337 337 336 336 335 335 334 331 329 325 326 328 331 335 334 333 333 334 333 333 333 333 332 333 333 334 333 332
324 326 329 330 330 330 332 333 332 331 330 330 330 329 329 330 330 329 328 333 331 334 335 335 333 332 332 332 332 334 335 333
317 318 319 319 319 318 318 320 321 322 324 324 325 326 328 330 331 331 331 330 330 329 330 330 334 334 334 331 331 332 333 333
314 313 314 314 314 314 313 312 312 313 313 314 314 316 321 326 326 328 329 329 329 330 329 328 325 332 333 331 330 330 330 332
310 310 309 309 309 309 309 310 310 310 310 310 311 311 311 313 315 318 323 328 329 328 327 327 325 327 331 330 330 329 329 328
302 303 305 305 305 306 305 305 306 306 307 307 308 309 310 310 310 311 313 319 324 329 329 326 325 325 331 330 330 329 329 329
300 301 301 301 302 302 303 303 303 304 304 304 304 304 305 306 308 309 310 310 313 317 326 326 326 326 324 325 327 328 327 326
302 301 301 301 301 301 302 302 303 303 304 304 304 305 305 305 305 306 307 309 310 311 315 322 327 325 329 328 327 327 326 324
304 303 302 301 301 301 302 302 303 303 303 304 304 305 305 305 306 306 306 308 309 310 310 311 314 319 325 328 330 327 326 326
307 303 303 302 301 302 302 302 302 301 301 302 304 304 305 306 306 307 307 307 309 309 310 310 311 312 316 325 329 329 328 328
302 304 303 301 301 302 301 300 301 300 298 298 300 301 304 305 305 306 308 308 308 310 311 311 311 311 312 315 325 329 330 328

GFSFLT2_850_thetae_132.txt.gz
Theta_e
330 338 341 341 340 340 339 339 339 338 337 335 334 334 335 334 333 332 330 328 327 328 328 329 329 329 328 327 328 330 335 338
323 329 339 343 343 342 341 339 338 339 338 336 334 333 334 334 333 333 333 331 329 328 329 330 330 330 328 328 329 330 331 338
320 324 330 335 340 341 341 342 340 339 339 337 335 334 335 334 334 333 333 333 331 331 330 329 330 330 329 328 329 331 337 338
327 321 328 333 338 338 340 341 341 340 339 338 336 335 341 342 340 335 334 334 334 332 332 331 330 335 335 330 329 335 337 338
327 337 325 330 345 342 341 341 341 342 340 341 342 342 340 340 341 339 335 335 335 334 333 333 337 338 337 337 337 337 337 337
315 315 321 330 336 342 341 335 339 342 342 341 340 339 337 339 342 341 340 339 337 338 337 336 339 339 339 339 338 337 336 336
314 314 319 326 330 330 326 330 338 337 336 338 340 340 339 338 339 339 339 338 338 339 339 338 337 337 338 338 338 338 337 336
317 317 317 319 322 320 331 334 341 341 341 337 335 340 339 339 337 338 338 338 337 337 338 338 337 338 337 336 337 337 337 337
321 322 322 325 325 329 336 336 337 340 341 337 341 339 339 338 338 337 336 336 335 335 336 335 335 334 334 335 335 334 335 336
319 321 324 325 326 329 331 333 336 337 337 337 334 335 335 335 336 337 336 336 335 332 333 332 332 331 332 332 333 334 334 334
317 318 320 323 325 326 327 328 329 330 330 331 332 332 332 332 332 331 333 335 334 332 332 332 332 329 327 331 329 325 335 334
312 312 312 313 315 317 315 317 317 320 322 323 324 325 325 325 325 326 326 328 329 331 331 332 330 331 329 324 325 329 334 332
309 309 309 310 309 309 309 310 310 310 311 312 312 313 313 315 316 317 319 320 323 326 333 332 331 330 327 326 327 325 332 333
303 303 303 303 303 303 303 303 303 304 306 306 307 308 309 309 310 310 311 312 314 317 322 329 330 331 331 328 329 327 331 330
307 306 306 306 305 304 303 301 301 302 302 302 303 304 304 305 305 306 307 309 309 310 312 316 322 327 329 330 329 330 330 332
305 306 306 306 306 306 305 303 302 301 301 301 301 301 302 302 303 304 304 305 305 306 309 310 312 317 325 328 328 329 330 329
305 303 302 303 302 301 302 302 300 299 299 300 301 301 301 302 302 302 303 303 304 304 305 306 309 312 314 317 324 326 328 328
299 299 299 300 300 299 298 297 298 298 297 297 298 300 300 300 301 302 302 303 304 304 304 304 305 307 309 311 314 322 325 327
298 299 299 299 299 299 297 298 295 294 294 294 293 294 296 297 298 298 300 301 301 302 303 302 303 305 306 308 310 314 321 325
299 298 298 298 298 297 297 296 293 292 291 291 291 291 292 293 293 294 295 295 297 298 299 300 302 302 304 306 307 308 311 317

GFSFLT2_850_thetae_138.txt.gz
Theta_e
345 330 335 340 340 340 340 340 340 339 338 337 337 335 335 337 336 335 334 330 328 326 327 328 328 327 327 328 328 328 326 335
339 347 343 338 341 342 341 341 340 340 339 339 338 337 336 334 336 336 335 333 330 329 327 326 326 327 327 328 328 327 326 326
338 343 346 347 345 343 341 342 341 341 340 339 339 339 338 336 334 335 335 334 333 332 330 327 326 328 328 328 328 327 326 327
328 341 344 345 345 344 341 331 335 335 341 341 342 341 339 338 340 338 335 335 334 333 333 330 328 328 328 328 328 327 328 329
322 332 344 344 344 344 346 344 344 344 342 342 343 343 344 343 341 340 341 341 338 333 333 333 331 329 328 326 331 336 330 331
318 319 327 339 342 343 340 341 343 342 339 340 341 342 342 341 339 339 339 339 338 338 335 334 334 332 329 330 336 338 336 331
316 316 317 318 328 337 340 340 339 337 335 337 340 343 337 334 336 338 337 338 339 338 337 337 338 335 332 331 339 340 338 337
317 318 319 322 322 326 331 336 337 336 335 334 336 336 337 340 337 333 336 338 338 338 337 337 338 338 337 333 336 339 338 335
316 318 320 323 324 325 326 328 332 331 331 332 332 332 334 335 336 334 336 337 336 335 337 337 336 327 324 334 336 335 338 338
315 316 317 318 323 321 321 323 323 324 325 328 330 330 331 330 330 331 332 332 331 332 334 334 331 327 322 324 334 334 332 333
313 313 314 313 314 317 316 317 316 316 318 324 321 322 323 323 323 326 328 326 326 326 329 331 331 334 331 329 329 328 330 332
310 310 308 309 309 310 311 310 312 311 311 311 310 310 311 310 311 313 314 315 318 321 319 321 329 331 333 332 331 330 331 331
309 309 310 309 308 308 307 307 308 308 308 306 306 305 305 305 306 307 308 309 310 312 314 315 319 319 325 327 327 326 328 328
308 308 308 308 307 307 307 307 307 307 306 306 305 304 303 302 302 303 303 304 305 307 311 311 312 319 321 323 325 322 323 324
306 306 303 302 303 303 304 306 306 306 304 304 305 304 304 304 304 303 302 302 302 303 305 309 309 311 317 318 322 325 324 325
304 302 301 301 301 301 301 301 301 302 302 302 301 302 301 302 302 303 303 303 301 301 301 302 305 306 308 314 317 317 318 320
304 302 301 301 301 301 302 302 302 301 301 301 300 300 299 299 300 300 300 300 301 301 301 301 301 302 303 305 309 315 317 318
303 302 301 301 301 301 302 302 302 301 301 300 298 298 298 297 297 297 297 297 297 297 298 299 298 299 300 302 303 305 309 311
302 301 300 300 301 301 301 301 301 300 300 298 297 296 294 293 292 293 292 292 293 293 294 295 296 295 297 298 300 302 303 307
301 300 300 300 300 300 300 300 299 299 298 297 295 293 290 290 290 290 290 290 290 291 291 292 293 294 294 296 296 298 300 302

GFSFLT2_850_thetae_141.txt.gz
Theta_e
340 338 333 336 339 339 339 339 339 339 339 337 336 335 335 335 336 336 335 333 331 328 326 327 328 327 327 327 328 327 326 331
344 345 347 350 341 341 341 341 340 340 339 339 338 338 337 335 335 336 336 335 334 332 329 327 327 327 327 326 327 328 327 326
341 342 344 341 337 349 343 339 336 340 340 340 339 339 338 337 336 335 335 335 335 335 332 331 328 327 327 327 327 327 327 326
338 341 340 343 346 345 349 342 339 336 337 343 342 342 342 341 338 337 338 336 334 335 334 333 333 330 327 327 327 327 327 326
322 327 342 343 344 344 344 341 334 325 337 339 341 340 341 342 342 340 340 339 339 338 335 335 333 333 330 328 327 327 327 327
315 315 318 333 342 342 342 340 339 339 338 338 340 340 341 343 340 336 336 337 339 338 338 337 336 334 334 332 331 330 330 336
313 315 317 317 319 328 334 337 338 338 338 337 335 332 336 336 335 336 338 335 336 336 336 337 336 336 337 335 329 334 332 335
315 316 318 321 322 322 326 328 330 331 332 332 329 332 332 330 332 334 336 335 333 336 336 334 334 335 335 323 324 330 333 335
316 317 318 321 322 321 323 323 324 324 326 327 327 327 327 328 329 330 330 330 330 331 332 333 334 333 330 322 326 327 330 328
314 314 316 317 320 317 317 317 317 318 320 321 322 324 325 326 326 327 327 327 327 328 327 329 330 332 328 323 327 327 325 327
312 311 312 313 316 316 314 314 312 312 313 313 312 313 312 312 313 315 318 319 320 324 324 323 326 328 330 328 326 326 326 327
311 311 310 310 309 309 308 309 308 308 308 307 306 306 305 305 305 307 308 309 310 311 313 314 318 321 326 329 328 328 327 328
310 310 310 309 311 310 309 308 307 308 307 307 306 307 306 306 305 304 303 303 304 305 307 309 311 314 315 315 318 327 329 328
309 309 306 303 304 304 306 307 307 307 306 305 304 304 304 305 305 306 306 305 302 302 303 304 307 312 316 317 317 315 315 314
308 305 301 301 301 301 301 302 302 301 301 302 301 301 301 301 302 302 303 303 303 302 301 302 302 304 313 313 317 321 321 316
302 301 301 301 301 301 301 301 302 302 302 302 302 301 301 301 300 300 300 300 300 300 299 300 301 301 302 311 312 312 315 315
303 302 301 301 301 301 301 301 301 302 302 302 302 301 300 300 300 300 299 298 296 295 296 296 296 298 300 301 303 310 312 310
302 302 301 301 301 301 301 301 301 301 302 302 301 301 300 299 299 297 296 295 294 293 292 293 293 294 296 297 299 300 302 303
302 301 301 301 301 301 301 301 301 301 300 300 300 299 298 297 295 293 291 290 290 290 290 291 291 292 293 294 295 298 298 299
302 301 300 300 301 301 300 300 300 300 299 299 299 298 297 295 294 293 291 291 290 288 289 289 289 290 290 291 292 293 295 297

GFSFLT2_850_thetae_144.txt.gz
Theta_e
344 343 341 342 342 340 339 339 339 339 338 338 337 336 335 335 336 336 336 334 333 332 330 328 325 325 327 328 328 328 327 327
341 341 340 338 337 338 340 340 340 340 340 339 339 338 337 336 336 335 336 337 336 335 334 333 329 326 326 327 327 327 327 327
343 342 339 339 338 339 340 341 341 341 340 340 339 339 339 338 338 336 335 335 335 335 335 335 333 331 329 327 328 326 327 327
333 339 342 343 343 343 342 345 341 342 340 337 341 341 341 339 339 339 337 336 337 336 335 335 335 334 333 332 330 328 328 327
319 319 329 339 342 344 341 341 341 339 332 329 341 341 341 344 344 341 340 339 338 338 338 337 336 335 334 334 333 331 331 331
314 314 316 317 324 338 341 336 337 336 338 338 338 339 340 338 339 339 339 338 337 337 336 336 336 336 336 336 335 333 332 329
313 313 316 318 320 321 328 334 336 336 334 336 336 336 334 331 327 329 333 334 335 336 335 334 334 333 334 335 332 328 327 328
313 315 317 320 321 321 322 325 327 329 331 331 330 329 327 326 329 328 326 328 329 330 329 329 331 334 333 332 327 324 326 325
315 316 317 320 320 319 319 319 320 322 322 323 324 324 324 324 325 325 326 325 325 326 327 329 330 332 332 329 322 322 326 326
314 315 315 318 317 315 315 315 318 319 318 318 318 319 317 317 320 321 322 323 323 325 326 326 326 326 327 328 322 323 326 326
313 313 312 313 315 313 311 311 311 310 309 310 309 309 308 308 308 308 309 309 310 313 317 320 320 321 324 327 326 323 326 326
312 312 312 310 309 309 308 308 308 309 309 308 308 308 308 308 308 306 305 304 305 306 308 310 311 313 314 317 321 323 326 326
310 310 310 310 309 308 308 308 307 307 306 304 303 302 302 303 304 305 306 307 306 304 303 304 306 309 310 311 312 314 320 326
310 310 306 302 302 302 303 303 302 302 301 301 302 302 302 302 302 301 301 301 302 304 305 305 303 304 307 311 312 313 313 313
309 306 301 301 301 301 301 301 301 301 301 301 302 302 302 302 301 301 301 301 301 300 301 302 304 303 304 307 312 314 315 314
304 301 301 301 301 301 302 302 302 301 301 301 301 301 301 301 301 301 300 300 300 299 299 299 300 301 302 304 305 305 306 309
302 301 301 301 301 301 301 302 301 301 301 301 302 301 301 300 299 299 298 298 296 295 294 294 294 296 297 298 301 302 305 303
302 301 301 301 301 301 301 301 301 301 301 301 301 301 300 299 298 297 296 295 294 292 290 291 291 292 294 295 295 296 298 299
303 302 301 301 300 300 301 301 300 300 300 300 300 300 299 298 297 296 295 294 293 292 289 289 289 290 290 292 294 294 294 296
304 301 300 300 300 300 300 300 300 299 299 299 299 299 298 296 296 296 295 294 293 292 291 290 289 289 289 289 290 292 294 294

GFSFLT2_850_thetae_147.txt.gz
Theta_e
337 338 338 338 338 338 338 339 339 339 338 338 337 336 335 335 335 336 336 336 335 334 333 332 331 328 326 328 328 329 328 328
339 340 339 339 342 341 340 340 340 339 339 339 339 338 338 337 336 335 335 335 336 337 336 335 334 333 331 328 328 329 328 328
340 340 341 340 339 340 342 341 341 339 339 339 339 339 339 338 338 337 336 336 335 335 335 336 335 335 335 333 331 329 328 328
335 338 340 341 341 341 341 341 340 341 340 340 342 340 339 339 341 341 339 338 337 336 336 335 335 335 335 335 333 333 329 328
318 318 319 327 336 340 342 341 339 340 340 338 332 338 337 339 339 338 341 339 339 338 335 335 335 335 335 334 333 334 333 331
315 314 314 314 315 319 335 339 335 333 335 334 335 335 334 334 335 335 334 333 335 335 335 334 333 333 334 335 334 334 333 333
314 313 313 313 316 318 320 328 333 332 333 334 332 332 333 333 332 331 327 326 326 328 329 331 332 331 330 331 331 330 327 327
313 312 312 313 315 317 319 321 323 326 328 328 328 328 328 326 325 324 325 325 324 322 324 326 326 326 330 332 332 331 325 324
312 313 314 315 317 317 318 319 319 320 320 320 321 320 320 320 321 322 322 323 323 324 324 325 326 327 326 331 331 328 322 321
314 314 316 316 317 317 317 317 316 315 313 312 311 310 309 309 308 309 311 312 313 316 318 322 324 325 326 326 327 327 322 322
313 313 313 314 314 314 313 312 311 311 311 311 310 310 309 309 309 309 307 306 306 307 308 310 312 314 317 320 322 326 324 323
312 311 311 311 311 311 310 310 310 309 305 302 302 302 302 302 302 302 303 305 307 307 306 304 306 308 310 312 313 314 322 323
311 311 310 309 310 310 309 308 304 302 301 301 301 301 302 302 302 302 302 302 302 302 303 307 306 304 305 308 310 311 312 313
309 308 308 308 308 307 304 302 301 301 301 301 301 301 301 302 302 302 303 303 303 302 302 302 302 305 304 304 307 311 311 312
307 302 301 301 301 301 302 301 301 301 301 301 301 301 302 302 302 303 303 303 303 303 302 302 301 301 301 303 306 308 310 312
303 301 301 301 301 301 301 301 301 301 301 301 301 301 301 301 301 301 301 300 300 301 301 301 301 300 299 300 300 300 303 306
301 301 301 301 301 301 301 301 301 301 300 300 300 300 300 300 299 299 299 298 298 297 297 298 298 296 294 295 297 299 301 300
302 301 301 301 300 301 301 301 300 300 299 299 300 299 299 298 298 298 298 297 297 296 295 293 294 293 292 292 293 293 295 295
303 301 301 300 300 301 301 300 300 299 299 299 299 298 298 298 296 297 297 297 296 295 295 294 293 293 293 292 291 291 292 292
303 302 301 300 300 301 300 300 299 298 298 297 297 297 297 296 295 295 295 295 295 295 295 294 293 291 291 292 291 290 289 290